Flag for France Weather past 2 weeks in Boulogne-Billancourt, France

Now
82 °F

Scattered clouds.


Feels Like: 82 °F
Forecast: 63 / 80 °F
Wind: 12 mph from Northeast

Location: Paris-Orly

Current Time: Jul 24, 2014 at 7:45:10 PM

Latest Report: Jul 24, 2014 at 7:00 PM


Visibility: N/A

Pressure: 29.86 "Hg

Humidity: 42%

Dew point: 57 °F

Location of Boulogne-BillancourtLocation

Historic Weather in Boulogne-Billancourt — Graph

°F

Boulogne-Billancourt temperature yesterday

Maximum temperature yesterday: 84 °F (at 4:00 PM)
Minimum temperature yesterday: 63 °F (at 5:00 AM)
Average temperature yesterday: 73 °F

Past Weeks' High & Low Weather Summary

 TemperatureHumidityPressure
High95 °F (Jul 18, 5:00 PM)94% (Jul 9, 7:30 PM)30.18 "Hg (Jul 9, 7:30 PM)
Low54 °F (Jul 14, 3:00 AM)33% (Jul 24, 4:30 PM)29.74 "Hg (Jul 19, 5:30 AM)
Average69 °F72%29.99 "Hg
* Reported Jul 9 6:00 PM — Jul 24 6:30 PM, Boulogne-Billancourt, Weather by CustomWeather, © 2014

Note: Actual official high and low records may vary slightly from our data, if they occured in-between our weather recording intervals... More about our weather records

Advertising

Boulogne-Billancourt weather history for previous 24 hours

 ConditionsComfort  
Time TempWeatherWind HumidityBarometerVisibility
6:30 PM
Jul 24
84 °FScattered clouds.6 mph40%29.86 "HgN/A
6:00 PM84 °FScattered clouds.7 mph37%29.86 "HgN/A
5:30 PM86 °FScattered clouds.7 mph38%29.89 "HgN/A
5:00 PM86 °FScattered clouds.7 mph38%29.89 "HgN/A
4:30 PM86 °FPartly sunny.8 mph33%29.89 "HgN/A
4:00 PM86 °FPartly sunny.8 mph38%29.89 "HgN/A
3:30 PM86 °FScattered clouds.7 mph40%29.89 "HgN/A
3:00 PM84 °FScattered clouds.7 mph43%29.92 "HgN/A
2:30 PM84 °FScattered clouds.9 mph43%29.92 "HgN/A
2:00 PM84 °FScattered clouds.8 mph48%29.92 "HgN/A
1:30 PM82 °FPassing clouds.9 mph45%29.92 "HgN/A
1:00 PM82 °FPassing clouds.9 mph48%29.92 "HgN/A
12:30 PM82 °FPassing clouds.8 mph48%29.92 "HgN/A
12:00 PM81 °FPassing clouds.8 mph51%29.92 "HgN/A
11:30 AM81 °FPassing clouds.7 mph58%29.92 "HgN/A
11:00 AM77 °FPassing clouds.3 mph57%29.92 "HgN/A
10:30 AM77 °FPassing clouds.3 mph61%29.92 "HgN/A
10:00 AM75 °FPassing clouds.5 mph61%29.92 "HgN/A
9:30 AM73 °FPassing clouds.5 mph65%29.92 "HgN/A
9:00 AM72 °FPassing clouds.6 mph69%29.92 "HgN/A
8:30 AM70 °FSunny.7 mph73%29.92 "Hg10 mi
7:30 AM68 °FSunny.6 mph78%29.92 "Hg10 mi
7:00 AM66 °FClear.5 mph78%29.92 "Hg10 mi
6:30 AM64 °FClear.3 mph78%29.92 "Hg10 mi
6:00 AM66 °FClear.5 mph78%29.92 "Hg10 mi
5:30 AM66 °FClear.3 mph78%29.92 "Hg10 mi
4:30 AM66 °FClear.5 mph78%29.92 "Hg10 mi
4:00 AM66 °FClear.5 mph78%29.92 "Hg10 mi
3:30 AM66 °FClear.5 mph78%29.92 "Hg10 mi
2:30 AM68 °FClear.5 mph73%29.92 "Hg10 mi
2:00 AM70 °FClear.2 mph69%29.95 "Hg10 mi
1:30 AM72 °FClear.3 mph65%29.95 "Hg10 mi
1:00 AM72 °FClear.5 mph69%29.95 "Hg10 mi
12:30 AM72 °FClear.8 mph69%29.95 "Hg10 mi
12:00 AM73 °FPassing clouds.6 mph65%29.95 "HgN/A
11:30 PM
Jul 23
72 °FClear.6 mph69%29.95 "Hg10 mi
11:00 PM73 °FClear.6 mph65%29.95 "Hg10 mi
10:30 PM75 °FSunny.8 mph57%29.95 "Hg10 mi
10:00 PM75 °FSunny.8 mph57%29.95 "Hg10 mi
9:30 PM77 °FSunny.8 mph54%29.95 "Hg10 mi
9:00 PM77 °FBroken clouds.9 mph57%29.92 "HgN/A
8:30 PM79 °FBroken clouds.9 mph51%29.92 "HgN/A
8:00 PM81 °FScattered clouds.9 mph45%29.92 "HgN/A
7:30 PM82 °FScattered clouds.12 mph45%29.92 "HgN/A
7:00 PM81 °FScattered clouds.12 mph48%29.92 "HgN/A
Weather by CustomWeather, © 2014

See weather overviewHow to use our weather pages